Location: Unspecified
(42.9386°N, 0.0000°E)
Time: 22:10:17
(UTC+00:00)

OTV 5 (USA 277) - Pass Details

Date: 18 June 2019
Orbit: 299 x 335 km, 54.5° (Epoch: 13 July)

Event Time Altitude Azimuth Distance (km) Brightness Sun altitude
Rises 01:51:20 0° 307° (NW) 2,105 ? -19.0°
Enters shadow 02:55:06 -65° 272° (W) 11,953 ? -12.5°
Maximum altitude 03:30:27 13° 19° (NNE) 1,084 ? -8.0°
